Wind_Speed
11 11 11 11 11 10 8 7 6 5 4 4 4 4 1 0 2 9 9 7 5 6 4 5 7 11 5 2 2 2 12 13 10 13 9 7 6 7 8 7 6 9 6 14 13
13 13 13 13 13 11 10 8 7 6 5 4 4 3 1 1 1 8 11 8 6 6 4 4 1 4 2 5 2 7 10 12 9 6 9 6 6 6 8 5 4 7 14 13 14
13 13 14 14 14 13 12 10 9 7 6 5 4 2 1 3 4 8 12 10 7 6 6 5 5 2 6 5 1 9 8 13 10 10 11 10 8 8 6 6 2 8 12 11 15
14 14 14 15 15 15 13 12 11 9 7 6 5 3 2 4 2 10 11 12 9 7 6 4 3 4 4 5 2 1 9 6 10 8 6 8 9 8 9 8 6 4 4 8 14
15 15 15 16 16 15 14 13 12 11 9 7 6 5 4 2 6 8 10 12 11 8 5 3 4 2 4 4 4 3 4 6 7 7 8 9 8 9 9 9 10 10 9 8 13
16 16 16 16 15 15 15 14 14 13 10 9 7 6 5 3 14 10 10 12 12 9 6 3 6 8 5 7 9 7 5 6 6 8 6 8 7 10 8 10 9 13 13 9 10
17 17 17 17 17 16 15 14 15 14 12 11 9 8 8 8 10 9 10 13 13 9 5 7 6 4 6 6 7 8 12 10 10 9 8 10 8 11 7 10 6 9 11 9 8
16 16 17 17 17 17 16 15 16 15 14 12 11 10 7 10 10 8 13 16 16 11 8 9 10 7 8 8 8 12 9 8 12 11 8 8 13 6 8 9 7 5 3 6 6
16 16 16 16 16 17 16 16 16 16 15 14 12 11 7 11 10 10 15 14 13 11 11 8 10 8 10 11 14 13 27 9 13 6 7 9 11 6 6 7 9 11 4 2 4
18 17 16 15 15 15 15 16 17 17 17 16 14 11 14 10 10 12 16 13 12 9 9 7 7 9 12 18 20 12 14 8 9 11 5 1 6 5 5 6 8 12 14 10 7
19 19 17 16 15 14 12 11 10 13 20 18 7 13 4 11 13 14 17 15 13 11 10 10 11 18 17 13 10 9 4 8 4 7 11 5 3 1 2 3 6 10 14 17 14
19 18 17 16 15 13 12 10 14 16 14 16 23 15 14 11 13 15 19 18 16 13 12 11 16 12 17 4 9 9 9 8 6 7 9 6 7 4 4 4 4 5 11 16 19
16 16 16 15 15 13 12 13 10 12 17 17 22 24 20 17 16 20 22 20 17 16 16 16 9 8 6 6 12 15 9 8 7 7 10 8 12 8 7 4 1 2 5 11 18
15 14 14 14 14 12 11 11 8 7 8 16 21 22 26 18 21 19 22 21 19 19 16 16 10 10 13 9 16 15 10 4 7 10 14 9 4 11 10 5 5 3 1 3 10
15 13 13 13 13 10 12 9 6 3 6 11 14 13 21 29 11 26 22 24 22 19 18 18 18 13 18 14 13 2 8 10 8 11 12 12 11 16 9 11 5 1 2 2 5
16 14 14 12 12 13 10 9 7 6 12 9 14 18 23 29 21 16 25 26 22 20 20 18 13 17 18 19 13 7 7 11 12 12 17 9 6 9 14 11 4 1 2 5 5
17 16 14 13 14 12 12 11 8 14 5 11 11 16 25 25 27 22 28 30 28 26 26 22 20 17 16 19 17 12 15 20 15 15 12 12 4 5 8 7 3 1 3 6 6
18 17 15 15 13 12 14 12 14 9 17 5 9 14 23 24 30 27 26 31 30 26 22 22 23 25 22 23 20 20 20 24 7 9 8 10 6 8 11 6 3 1 3 5 7
17 18 16 16 15 14 18 20 20 15 9 8 8 14 21 26 24 29 29 30 30 30 29 21 26 14 26 23 21 20 23 20 21 19 19 13 4 11 10 8 6 4 2 3 7
15 16 17 17 17 17 20 26 18 14 6 9 12 12 19 26 27 32 28 28 28 29 28 23 19 20 17 17 20 25 21 17 22 16 17 18 13 10 17 12 9 4 1 4 5
12 10 19 17 18 22 24 22 21 14 12 9 9 8 15 18 26 26 30 23 24 25 27 28 22 19 18 18 21 22 25 26 23 22 15 13 18 10 15 16 11 8 7 6 5
10 7 17 16 21 20 22 21 16 20 18 14 11 9 9 13 16 27 25 27 21 22 24 29 26 27 23 18 19 24 24 23 30 25 23 27 22 6 11 12 10 12 9 8 7
11 11 19 17 17 20 19 20 21 19 17 14 17 12 9 10 13 18 25 19 20 19 18 20 29 29 23 23 23 21 22 22 21 22 25 16 9 8 12 11 11 13 13 16 16
9 5 12 19 20 17 19 23 21 16 20 17 18 17 14 13 12 9 19 12 12 18 21 13 23 24 25 21 13 24 21 23 23 25 23 25 21 15 15 14 16 15 16 21 21
9 7 14 7 17 20 18 16 20 19 14 14 20 21 19 18 17 17 14 18 15 20 23 25 23 23 25 25 8 13 13 13 16 23 24 24 21 3 12 14 14 13 19 24 25
13 15 14 16 10 15 20 20 18 16 18 14 18 15 16 24 20 17 17 19 15 17 20 20 24 21 21 20 21 18 20 20 20 17 20 21 23 21 16 13 16 14 18 23 28
14 16 16 10 13 15 14 20 16 18 15 16 13 14 17 16 19 22 18 17 19 22 18 21 22 22 21 22 24 24 18 20 23 22 21 22 20 13 14 13 17 19 19 23 29
Wind_Direction
256 256 260 267 274 285 290 286 286 286 291 298 314 326 332 38 216 209 202 204 177 159 149 132 137 126 256 236 67 153 123 107 74 77 87 103 74 92 96 103 97 102 133 168 168
259 260 263 266 269 277 279 274 271 275 277 287 305 315 320 5 219 222 212 203 182 165 146 120 267 151 224 268 135 164 299 101 80 85 79 90 96 99 97 99 97 112 148 170 166
263 264 264 265 267 269 271 266 263 265 268 275 289 287 132 67 83 226 221 204 190 177 143 172 165 259 250 264 318 76 85 99 93 99 86 87 97 98 91 80 169 151 165 171 169
264 264 266 268 268 267 267 261 256 255 259 264 269 259 224 120 49 243 225 207 195 188 151 222 207 228 241 242 197 256 84 90 103 100 86 92 92 97 85 100 113 159 126 155 169
263 266 268 267 266 265 262 256 252 250 251 253 258 257 253 226 271 240 217 207 200 194 172 217 212 256 204 199 180 143 111 113 112 112 111 98 96 98 103 96 112 64 100 132 163
266 265 264 264 265 264 260 256 252 248 246 247 250 254 250 232 242 244 214 201 201 193 203 167 220 225 228 201 206 167 173 154 149 138 134 132 114 109 119 120 70 65 72 111 154
269 268 265 263 263 261 259 255 252 248 246 245 246 251 249 222 246 238 205 192 200 180 223 228 215 186 240 196 212 198 201 159 158 156 138 140 127 128 144 138 80 74 72 86 125
271 270 268 265 262 260 256 253 250 247 245 243 244 246 236 254 241 223 192 192 198 204 199 225 201 235 215 217 228 198 236 213 156 165 175 164 122 134 153 160 157 149 101 87 100
272 271 270 266 262 258 254 250 248 245 242 240 241 245 246 259 239 210 187 187 194 206 224 214 199 211 215 200 204 197 123 173 155 188 171 167 135 137 159 184 183 182 197 195 140
272 270 269 267 263 259 255 250 248 246 242 237 236 243 248 236 205 195 179 188 192 213 228 219 219 208 205 217 223 228 202 137 154 176 191 183 95 163 165 210 221 201 199 202 200
270 270 268 265 262 260 258 255 266 278 245 227 272 220 209 192 193 190 189 181 196 204 202 225 215 212 210 172 223 285 162 102 151 193 198 181 165 134 151 185 204 220 216 204 205
267 266 266 263 258 254 250 239 241 226 247 240 219 218 210 204 199 198 191 189 197 203 200 219 217 223 222 194 219 195 202 149 158 178 224 191 207 208 162 134 130 205 226 214 206
267 265 262 260 256 249 244 241 248 249 259 244 232 224 217 212 199 202 195 194 205 204 206 213 204 245 218 226 210 198 223 174 183 179 225 238 223 199 210 183 204 145 194 218 217
263 262 259 256 253 248 244 240 241 258 270 239 212 223 211 208 213 205 204 198 208 211 218 220 222 227 204 225 227 219 221 195 237 245 229 248 157 188 170 189 126 129 88 231 227
259 256 254 248 245 230 234 228 219 195 264 160 195 202 199 204 197 204 206 197 207 212 211 218 224 228 214 218 225 59 191 222 240 260 271 235 247 135 185 181 160 298 344 270 219
255 250 251 244 240 231 220 202 193 222 245 198 204 203 190 204 201 207 202 201 211 214 223 220 230 225 222 219 227 267 232 228 239 249 268 205 239 186 151 169 194 236 8 22 344
254 248 242 243 238 224 204 183 218 237 191 215 207 199 196 203 199 197 199 202 207 211 219 221 224 221 214 218 225 238 239 235 221 217 236 131 198 302 160 166 189 195 9 21 12
260 249 239 236 234 218 198 190 237 235 233 217 205 204 205 200 203 205 203 208 211 213 217 214 220 225 219 222 220 226 233 257 257 268 285 128 232 203 157 181 237 252 1 340 341
261 256 242 230 224 214 197 212 218 237 249 229 225 218 211 207 206 205 211 212 213 211 221 218 232 244 219 222 221 234 245 249 291 292 285 278 204 186 192 200 192 213 300 352 309
259 255 252 228 216 211 207 222 225 243 238 236 240 222 214 205 205 207 211 217 217 216 219 230 251 215 204 211 222 228 239 243 238 259 278 278 255 194 170 182 183 201 191 109 102
253 251 247 233 214 204 216 227 232 241 232 238 237 238 230 214 214 216 216 219 217 219 221 227 236 223 202 213 223 224 238 243 261 265 270 253 242 236 183 182 187 191 177 160 149
240 226 248 232 216 217 225 226 235 231 242 230 239 236 233 233 227 221 219 223 218 215 223 225 229 232 234 235 241 236 244 230 239 240 254 271 277 201 188 193 201 191 193 173 160
230 220 244 226 214 223 232 232 230 230 232 236 236 235 230 222 230 228 225 229 205 207 227 221 225 244 239 244 232 233 234 244 250 256 251 272 261 177 188 194 198 193 236 249 248
232 235 246 230 221 236 229 233 234 242 228 231 229 229 235 234 227 232 217 216 202 212 223 222 224 226 240 244 237 229 228 239 243 250 250 247 257 222 212 206 199 224 239 244 244
217 219 221 219 234 233 228 229 235 224 237 228 235 233 230 238 232 226 224 225 236 224 224 221 234 240 249 249 240 246 235 233 246 255 262 264 260 323 221 221 214 231 249 245 245
213 223 229 229 245 221 226 224 229 227 227 232 235 225 237 234 231 234 230 227 226 219 221 220 229 241 253 244 254 249 249 250 257 261 256 262 268 273 281 256 205 243 252 234 242
238 234 233 227 237 237 233 231 227 225 229 229 224 230 230 233 229 225 237 230 230 226 222 222 229 236 241 243 249 243 249 260 259 256 258 260 266 285 285 238 231 249 243 240 244
Height
3180 3180 3180 3180 3180 3180 3179 3178 3177 3177 3176 3176 3175 3175 3175 3175 3175 3176 3177 3178 3179 3179 3180 3181 3182 3182 3180 3178 3183 3185 3175 3174 3175 3177 3181 3182 3181 3182 3181 3181 3182 3181 3181 3178 3179
3179 3178 3178 3178 3178 3178 3178 3177 3177 3176 3176 3175 3175 3175 3175 3175 3175 3175 3177 3178 3179 3179 3180 3181 3184 3182 3180 3180 3188 3177 3174 3175 3177 3180 3181 3182 3183 3182 3184 3183 3181 3180 3180 3178 3179
3176 3176 3176 3176 3176 3176 3176 3176 3176 3175 3175 3175 3174 3174 3174 3175 3176 3176 3175 3177 3179 3179 3180 3181 3182 3184 3183 3182 3189 3176 3176 3177 3180 3182 3182 3183 3183 3183 3183 3184 3183 3181 3179 3178 3179
3174 3174 3174 3174 3174 3174 3174 3174 3174 3174 3174 3174 3174 3173 3174 3175 3179 3174 3174 3177 3178 3179 3180 3183 3183 3185 3184 3182 3184 3182 3179 3177 3181 3184 3183 3183 3184 3185 3185 3185 3184 3180 3179 3179 3180
3171 3171 3171 3171 3171 3171 3171 3172 3172 3173 3173 3173 3173 3173 3174 3175 3177 3173 3173 3176 3178 3179 3181 3184 3185 3186 3184 3183 3182 3177 3180 3181 3183 3184 3184 3185 3186 3186 3187 3185 3184 3181 3179 3180 3181
3168 3168 3168 3168 3168 3168 3169 3169 3170 3171 3171 3172 3171 3171 3172 3174 3172 3171 3172 3175 3177 3179 3183 3184 3187 3185 3184 3182 3178 3182 3181 3181 3183 3184 3185 3184 3186 3186 3188 3187 3184 3183 3181 3181 3183
3165 3165 3165 3165 3165 3165 3166 3167 3167 3168 3170 3170 3170 3170 3171 3172 3170 3170 3171 3174 3176 3180 3184 3182 3182 3185 3185 3183 3181 3181 3181 3182 3181 3182 3183 3182 3185 3186 3187 3187 3185 3185 3185 3184 3184
3161 3161 3161 3161 3162 3162 3163 3164 3165 3166 3167 3168 3168 3168 3168 3167 3168 3168 3170 3173 3175 3179 3181 3179 3180 3181 3183 3182 3179 3181 3176 3179 3182 3181 3181 3183 3182 3186 3187 3187 3186 3186 3186 3187 3187
3157 3158 3158 3158 3158 3159 3159 3160 3161 3163 3164 3165 3167 3167 3168 3166 3166 3167 3169 3174 3176 3178 3178 3178 3180 3182 3183 3179 3176 3177 3182 3178 3182 3180 3181 3173 3179 3185 3187 3188 3188 3187 3187 3187 3188
3154 3154 3154 3155 3155 3155 3156 3157 3158 3159 3161 3162 3164 3167 3164 3165 3166 3167 3170 3176 3178 3179 3179 3180 3182 3182 3181 3176 3171 3170 3170 3176 3177 3181 3180 3178 3180 3182 3186 3187 3187 3188 3186 3186 3187
3151 3151 3151 3151 3151 3152 3154 3155 3159 3158 3155 3159 3164 3162 3164 3165 3164 3167 3170 3174 3177 3179 3180 3181 3182 3179 3177 3173 3175 3172 3173 3171 3177 3179 3180 3179 3182 3183 3183 3185 3186 3186 3186 3186 3186
3147 3147 3147 3147 3148 3149 3150 3152 3152 3153 3153 3154 3155 3158 3161 3162 3164 3166 3169 3174 3176 3178 3179 3180 3178 3178 3176 3178 3178 3177 3172 3172 3178 3180 3179 3179 3180 3182 3183 3184 3184 3185 3185 3185 3185
3143 3143 3143 3144 3145 3146 3147 3149 3150 3150 3149 3150 3150 3152 3157 3159 3162 3164 3167 3171 3174 3176 3176 3178 3177 3173 3176 3178 3176 3173 3172 3173 3176 3178 3178 3177 3176 3179 3181 3183 3183 3183 3184 3184 3185
3140 3140 3140 3141 3144 3144 3145 3146 3148 3149 3149 3145 3145 3146 3152 3156 3158 3163 3164 3170 3172 3173 3175 3176 3176 3177 3178 3177 3174 3171 3174 3175 3176 3175 3171 3173 3172 3172 3177 3180 3182 3181 3183 3183 3183
3136 3137 3137 3138 3140 3141 3143 3145 3147 3148 3144 3139 3142 3144 3146 3150 3155 3157 3162 3166 3168 3170 3174 3173 3175 3175 3178 3177 3176 3176 3176 3177 3176 3174 3168 3169 3170 3169 3174 3177 3180 3181 3182 3180 3179
3131 3132 3133 3135 3136 3138 3141 3143 3147 3151 3138 3136 3137 3137 3143 3146 3151 3155 3158 3163 3167 3168 3169 3170 3172 3174 3175 3177 3176 3176 3177 3176 3174 3172 3164 3162 3168 3162 3168 3175 3179 3181 3180 3177 3175
3125 3127 3129 3131 3133 3135 3138 3142 3148 3140 3133 3133 3135 3136 3139 3142 3147 3150 3153 3156 3160 3164 3163 3167 3168 3171 3172 3174 3176 3176 3175 3167 3165 3160 3153 3158 3168 3165 3168 3174 3178 3178 3177 3175 3175
3121 3122 3125 3127 3130 3132 3135 3141 3140 3131 3131 3131 3132 3134 3136 3138 3142 3145 3149 3151 3155 3157 3157 3162 3164 3165 3167 3169 3171 3172 3171 3161 3157 3149 3148 3155 3161 3163 3167 3172 3175 3176 3173 3172 3171
3116 3117 3119 3122 3125 3129 3132 3135 3132 3131 3130 3131 3131 3131 3132 3134 3138 3141 3143 3145 3148 3152 3154 3153 3154 3156 3160 3164 3168 3167 3166 3164 3156 3152 3150 3149 3155 3160 3164 3170 3173 3174 3171 3171 3169
3112 3114 3115 3117 3121 3124 3127 3126 3128 3129 3129 3131 3129 3127 3127 3129 3133 3135 3138 3140 3143 3147 3150 3151 3155 3152 3157 3161 3163 3163 3165 3164 3162 3161 3156 3151 3150 3148 3158 3164 3169 3172 3171 3169 3168
3109 3112 3109 3114 3116 3119 3120 3123 3125 3126 3127 3129 3128 3127 3126 3126 3128 3130 3134 3137 3139 3142 3145 3148 3149 3150 3152 3155 3157 3160 3160 3159 3157 3154 3148 3146 3145 3144 3151 3158 3164 3166 3168 3168 3166
3105 3110 3107 3109 3113 3115 3116 3119 3120 3123 3124 3125 3127 3127 3126 3125 3124 3127 3128 3132 3135 3138 3141 3144 3146 3145 3145 3149 3150 3151 3151 3152 3152 3153 3152 3149 3145 3149 3154 3158 3161 3161 3162 3165 3165
3101 3107 3102 3105 3108 3111 3113 3115 3116 3118 3120 3122 3123 3125 3125 3126 3127 3125 3126 3130 3130 3135 3138 3140 3140 3140 3141 3143 3143 3146 3148 3148 3146 3145 3143 3144 3145 3147 3151 3155 3159 3158 3157 3160 3159
3099 3103 3102 3099 3103 3106 3108 3110 3112 3112 3115 3118 3119 3121 3123 3123 3124 3123 3124 3125 3127 3132 3135 3136 3135 3136 3134 3133 3133 3134 3141 3144 3144 3143 3142 3142 3144 3145 3147 3148 3150 3152 3154 3155 3155
3095 3100 3096 3100 3100 3102 3104 3106 3107 3109 3110 3113 3115 3116 3119 3120 3120 3121 3123 3124 3126 3129 3131 3134 3134 3133 3132 3130 3133 3135 3136 3138 3140 3139 3138 3138 3139 3143 3144 3147 3147 3147 3149 3150 3151
3091 3090 3091 3094 3095 3098 3100 3101 3103 3105 3107 3109 3110 3112 3114 3115 3117 3118 3120 3120 3122 3126 3127 3129 3130 3130 3128 3130 3130 3134 3135 3136 3137 3137 3138 3138 3137 3140 3142 3141 3141 3143 3145 3145 3145
3084 3085 3087 3091 3093 3096 3096 3098 3100 3102 3103 3105 3106 3108 3109 3112 3112 3114 3114 3115 3118 3119 3122 3125 3126 3126 3126 3129 3128 3127 3131 3132 3133 3134 3135 3136 3139 3137 3141 3139 3136 3138 3139 3139 3139